Location: Corralito
(14.1667°N, 87.1833°W)
Time: 22:24:44
(UTC+00:00)

Nadezhda 4 Rocket - Pass Details

Date: 04 October 2020
Orbit: 949 x 992 km, 82.9° (Epoch: 26 October)

Event Time Altitude Azimuth Distance (km) Brightness Sun altitude
Rises 00:58:26 0° 341° (NNW) 3,627 7.2 -20.7°
Reaches altitude 10° 01:01:07 10° 333° (NNW) 2,687 6.6 -21.4°
Maximum altitude 01:06:36 35° 269° (W) 1,505 5.6 -22.7°
Drops below altitude 10° 01:12:10 10° 205° (SSW) 2,711 6.6 -24.0°
Sets 01:14:54 0° 197° (SSW) 3,665 7.2 -24.7°
